TimeEST,TemperatureF,Dew PointF,Humidity,Sea Level PressureIn,VisibilityMPH,Wind Direction,Wind SpeedMPH,Gust SpeedMPH,PrecipitationIn,Events,Conditions,WindDirDegrees,DateUTC
12:15 AM,37.4,23.0,56,30.17,10.0,NNW,13.8,18.4,N/A,,Clear,340,2012-12-12 05:15:00
12:35 AM,37.4,21.2,52,30.17,10.0,NNW,12.7,18.4,N/A,,Clear,340,2012-12-12 05:35:00
12:55 AM,37.4,21.2,52,30.18,10.0,North,9.2,18.4,N/A,,Clear,350,2012-12-12 05:55:00
1:15 AM,37.4,21.2,52,30.18,10.0,NNW,13.8,23.0,N/A,,Clear,330,2012-12-12 06:15:00
1:35 AM,37.4,21.2,52,30.19,10.0,NNW,15.0,19.6,N/A,,Clear,330,2012-12-12 06:35:00
1:55 AM,37.4,21.2,52,30.20,10.0,NNW,11.5,21.9,N/A,,Clear,340,2012-12-12 06:55:00
2:15 AM,37.4,21.2,52,30.21,10.0,NNW,12.7,19.6,N/A,,Clear,330,2012-12-12 07:15:00
2:35 AM,37.4,21.2,52,30.21,10.0,NNW,9.2,19.6,N/A,,Clear,340,2012-12-12 07:35:00
2:55 AM,37.4,21.2,52,30.21,10.0,NNW,11.5,19.6,N/A,,Clear,340,2012-12-12 07:55:00
4:15 AM,35.6,21.2,56,30.24,10.0,NNW,12.7,19.6,N/A,,Clear,330,2012-12-12 09:15:00
4:35 AM,35.6,21.2,56,30.25,10.0,NNW,11.5,19.6,N/A,,Clear,330,2012-12-12 09:35:00
5:35 AM,35.6,19.4,52,30.28,10.0,NNW,9.2,-,N/A,,Clear,330,2012-12-12 10:35:00
5:55 AM,33.8,19.4,56,30.29,10.0,NNW,8.1,-,N/A,,Clear,330,2012-12-12 10:55:00
6:15 AM,33.8,19.4,56,30.30,10.0,North,6.9,-,N/A,,Clear,350,2012-12-12 11:15:00
6:35 AM,33.8,19.4,56,30.31,10.0,North,5.8,-,N/A,,Clear,350,2012-12-12 11:35:00
7:15 AM,33.8,19.4,56,30.32,10.0,NNW,8.1,-,N/A,,Clear,340,2012-12-12 12:15:00
7:35 AM,33.8,19.4,56,30.33,10.0,NNW,5.8,-,N/A,,Clear,340,2012-12-12 12:35:00
8:15 AM,33.8,19.4,56,30.33,10.0,North,9.2,-,N/A,,Clear,350,2012-12-12 13:15:00
8:35 AM,35.6,19.4,52,30.34,10.0,North,10.4,-,N/A,,Clear,10,2012-12-12 13:35:00
9:15 AM,35.6,21.2,56,30.36,10.0,North,8.1,-,N/A,,Clear,360,2012-12-12 14:15:00
9:35 AM,35.6,21.2,56,30.36,10.0,North,9.2,-,N/A,,Clear,360,2012-12-12 14:35:00
9:55 AM,35.6,21.2,56,30.35,10.0,North,10.4,-,N/A,,Clear,10,2012-12-12 14:55:00
10:15 AM,35.6,21.2,56,30.35,10.0,North,10.4,-,N/A,,Clear,360,2012-12-12 15:15:00
10:35 AM,35.6,21.2,56,30.35,10.0,NNW,6.9,-,N/A,,Clear,340,2012-12-12 15:35:00
10:55 AM,37.4,21.2,52,30.36,10.0,NNW,6.9,-,N/A,,Clear,340,2012-12-12 15:55:00
11:55 AM,37.4,21.2,52,30.35,10.0,North,5.8,-,N/A,,Clear,350,2012-12-12 16:55:00
12:15 PM,37.4,21.2,52,30.35,10.0,North,8.1,-,N/A,,Clear,350,2012-12-12 17:15:00
12:35 PM,37.4,21.2,52,30.34,10.0,North,4.6,-,N/A,,Clear,360,2012-12-12 17:35:00
12:55 PM,39.2,21.2,49,30.34,10.0,NNW,4.6,-,N/A,,Clear,330,2012-12-12 17:55:00
1:35 PM,39.2,21.2,49,30.33,10.0,NW,3.5,-,N/A,,Clear,320,2012-12-12 18:35:00
1:55 PM,41.0,21.2,45,30.34,10.0,Calm,Calm,-,N/A,,Clear,0,2012-12-12 18:55:00
2:15 PM,39.2,24.8,56,30.33,10.0,Calm,Calm,-,N/A,,Clear,0,2012-12-12 19:15:00
2:55 PM,39.2,24.8,56,30.34,10.0,Calm,Calm,-,N/A,,Clear,0,2012-12-12 19:55:00
3:15 PM,39.2,24.8,56,30.35,10.0,ENE,3.5,-,N/A,,Clear,70,2012-12-12 20:15:00
3:55 PM,39.2,24.8,56,30.36,10.0,Calm,Calm,-,N/A,,Clear,0,2012-12-12 20:55:00
4:15 PM,39.2,21.2,49,30.36,10.0,NNW,6.9,-,N/A,,Clear,340,2012-12-12 21:15:00
4:35 PM,39.2,21.2,49,30.36,10.0,NNW,5.8,-,N/A,,Clear,340,2012-12-12 21:35:00
4:55 PM,39.2,21.2,49,30.37,10.0,NNW,4.6,-,N/A,,Clear,330,2012-12-12 21:55:00
5:15 PM,39.2,21.2,49,30.38,10.0,NNW,5.8,-,N/A,,Clear,330,2012-12-12 22:15:00
5:35 PM,39.2,19.4,45,30.37,10.0,NNW,8.1,-,N/A,,Clear,340,2012-12-12 22:35:00
6:15 PM,39.2,21.2,49,30.39,10.0,NNW,6.9,-,N/A,,Clear,340,2012-12-12 23:15:00
6:35 PM,39.2,21.2,49,30.40,10.0,NNW,6.9,-,N/A,,Clear,340,2012-12-12 23:35:00
7:15 PM,39.2,21.2,49,30.39,10.0,NNW,8.1,-,N/A,,Clear,340,2012-12-13 00:15:00
7:55 PM,39.2,23.0,52,30.39,10.0,NNW,6.9,-,N/A,,Clear,340,2012-12-13 00:55:00
8:15 PM,39.2,23.0,52,30.40,10.0,North,5.8,-,N/A,,Clear,350,2012-12-13 01:15:00
8:35 PM,39.2,23.0,52,30.39,10.0,North,5.8,-,N/A,,Clear,10,2012-12-13 01:35:00
8:55 PM,39.2,24.8,56,30.39,10.0,North,5.8,-,N/A,,Clear,360,2012-12-13 01:55:00
9:15 PM,39.2,23.0,52,30.41,10.0,North,6.9,-,N/A,,Clear,350,2012-12-13 02:15:00
9:35 PM,39.2,24.8,56,30.43,10.0,NNW,6.9,-,N/A,,Clear,330,2012-12-13 02:35:00
10:35 PM,39.2,24.8,56,30.40,10.0,North,8.1,-,N/A,,Clear,350,2012-12-13 03:35:00
11:55 PM,39.2,24.8,56,30.41,10.0,North,12.7,-,N/A,,Clear,10,2012-12-13 04:55:00